Location: Newark
(47.5833°N, 8.1500°E)
Time: 10:09:11
(UTC+00:00)

Altair - Pass Details

Date: 04 November 2020
Orbit: 1502 x 1682 km, 47.2° (Epoch: 25 November)

Event Time Altitude Azimuth Distance (km) Brightness Sun altitude
Exits shadow 01:09:32 19° 105° (ESE) 3,001 9.1 -49.6°
Drops below altitude 10° 01:13:16 10° 84° (E) 3,703 9.9 -49.2°
Sets 01:17:09 0° 70° (ENE) 4,714 10.7 -48.7°
